QPF
0.02 0.02 0.02 0.03 0.03 0.04 0.05 0.05 0.04 0.04 0.05 0.07 0.05 0.03 0.02 0.02 0.02 0.01 0.01 0.01 0.01 0.01 0.01 0.01 0.01 0.01 0.01 0.01 0.01 0.01 0.01 0.01 0.02 0.03 0.02 0.02 0.02 0.02 0.02 0.02 0.02 0.02 0.02 0.02
0.01 0.02 0.01 0.01 0.02 0.02 0.04 0.04 0.04 0.03 0.04 0.04 0.04 0.03 0.02 0.02 0.02 0.02 0.02 0.01 0.01 0.01 0.01 0.01 0.01 0.01 0.01 0.01 0.01 0.01 0.01 0.01 0.02 0.02 0.02 0.02 0.02 0.03 0.02 0.02 0.02 0.02 0.02 0.02
0.01 0.02 0.02 0.03 0.03 0.03 0.04 0.05 0.05 0.05 0.05 0.03 0.02 0.03 0.04 0.03 0.03 0.03 0.03 0.02 0.02 0.01 0.02 0.02 0.02 0.03 0.03 0.02 0.02 0.02 0.01 0.02 0.02 0.02 0.02 0.02 0.02 0.02 0.02 0.02 0.02 0.02 0.03 0.03
0.01 0.02 0.03 0.05 0.03 0.03 0.03 0.04 0.04 0.05 0.05 0.04 0.03 0.03 0.04 0.03 0.03 0.04 0.03 0.02 0.02 0.02 0.02 0.03 0.02 0.03 0.03 0.04 0.02 0.02 0.02 0.02 0.02 0.02 0.02 0.02 0.02 0.02 0.01 0.02 0.02 0.03 0.03 0.03
0.02 0.02 0.02 0.03 0.02 0.03 0.04 0.04 0.04 0.04 0.04 0.03 0.03 0.02 0.02 0.02 0.03 0.04 0.03 0.02 0.03 0.03 0.03 0.03 0.03 0.03 0.03 0.04 0.04 0.03 0.02 0.02 0.02 0.02 0.02 0.02 0.02 0.02 0.02 0.02 0.02 0.02 0.02 0.02
0.02 0.02 0.02 0.02 0.02 0.02 0.04 0.04 0.03 0.04 0.04 0.03 0.02 0.02 0.02 0.02 0.02 0.02 0.02 0.03 0.03 0.03 0.02 0.03 0.03 0.03 0.03 0.03 0.04 0.03 0.02 0.02 0.02 0.02 0.01 0.01 0.02 0.02 0.02 0.02 0.03 0.03 0.03 0.02
0.01 0.02 0.02 0.03 0.02 0.02 0.04 0.05 0.03 0.04 0.04 0.03 0.03 0.03 0.03 0.02 0.02 0.02 0.02 0.02 0.03 0.02 0.02 0.03 0.03 0.02 0.02 0.02 0.03 0.03 0.02 0.02 0.02 0.02 0.02 0.02 0.01 0.01 0.02 0.02 0.02 0.02 0.02 0.02
0.02 0.02 0.03 0.02 0.02 0.04 0.06 0.04 0.03 0.03 0.04 0.03 0.03 0.02 0.02 0.02 0.02 0.02 0.02 0.02 0.02 0.02 0.02 0.02 0.02 0.02 0.02 0.02 0.02 0.02 0.02 0.02 0.02 0.02 0.02 0.01 0.01 0.01 0.01 0.01 0.02 0.02 0.01 0.01
0.03 0.04 0.04 0.03 0.04 0.04 0.04 0.04 0.04 0.04 0.04 0.03 0.02 0.02 0.02 0.02 0.02 0.02 0.02 0.02 0.02 0.02 0.02 0.02 0.02 0.03 0.03 0.03 0.03 0.03 0.03 0.03 0.03 0.02 0.02 0.02 0.01 0.02 0.02 0.01 0.01 0.01 0.01 0.01
0.03 0.03 0.03 0.02 0.02 0.02 0.03 0.04 0.04 0.04 0.04 0.03 0.02 0.02 0.02 0.02 0.02 0.02 0.02 0.03 0.03 0.02 0.02 0.03 0.03 0.03 0.03 0.02 0.03 0.03 0.03 0.03 0.02 0.02 0.02 0.01 0.02 0.02 0.02 0.02 0.01 0.01 0.01 0.02
0.01 0.01 0.02 0.01 0.01 0.02 0.02 0.03 0.03 0.03 0.03 0.04 0.03 0.03 0.02 0.03 0.03 0.03 0.03 0.03 0.03 0.03 0.03 0.04 0.03 0.03 0.03 0.03 0.03 0.03 0.03 0.02 0.02 0.02 0.01 0.01 0.01 0.02 0.02 0.02 0.02 0.02 0.02 0.02
0.01 0.01 0.02 0.01 0.02 0.02 0.02 0.02 0.03 0.03 0.03 0.03 0.03 0.03 0.03 0.03 0.03 0.03 0.03 0.03 0.03 0.04 0.04 0.04 0.03 0.03 0.03 0.03 0.03 0.03 0.03 0.03 0.02 0.02 0.02 0.01 0.01 0.02 0.02 0.02 0.02 0.02 0.02 0.02
0.02 0.01 0.02 0.01 0.01 0.01 0.01 0.02 0.03 0.03 0.03 0.04 0.04 0.03 0.03 0.03 0.03 0.03 0.03 0.03 0.03 0.04 0.05 0.05 0.04 0.04 0.04 0.04 0.03 0.04 0.03 0.03 0.03 0.02 0.02 0.02 0.02 0.01 0.02 0.02 0.02 0.02 0.02 0.02
0.01 0.01 0.01 0.01 0.01 0.01 0.01 0.02 0.02 0.03 0.03 0.04 0.04 0.03 0.02 0.02 0.02 0.02 0.03 0.03 0.03 0.03 0.04 0.05 0.04 0.04 0.04 0.04 0.04 0.04 0.04 0.04 0.04 0.03 0.03 0.02 0.02 0.02 0.02 0.01 0.01 0.02 0.02 0.02
0.01 0.01 0.01 0.01 0.01 0.02 0.02 0.02 0.02 0.03 0.03 0.04 0.04 0.04 0.03 0.02 0.02 0.02 0.02 0.02 0.02 0.02 0.03 0.04 0.04 0.05 0.05 0.04 0.05 0.05 0.05 0.05 0.05 0.05 0.04 0.04 0.03 0.03 0.02 0.02 0.01 0.01 0.01 0.02
0.01 0.01 0.01 0.01 0.01 0.02 0.02 0.03 0.03 0.03 0.04 0.04 0.04 0.04 0.03 0.03 0.02 0.02 0.02 0.02 0.02 0.03 0.03 0.03 0.04 0.05 0.04 0.04 0.05 0.06 0.07 0.07 0.06 0.06 0.06 0.06 0.05 0.04 0.03 0.02 0.02 0.01 0.01 0.01
0.02 0.02 0.02 0.02 0.02 0.02 0.03 0.03 0.04 0.04 0.04 0.03 0.03 0.03 0.03 0.03 0.02 0.02 0.03 0.03 0.02 0.03 0.03 0.03 0.04 0.04 0.04 0.04 0.05 0.06 0.06 0.07 0.06 0.06 0.06 0.06 0.05 0.05 0.04 0.03 0.03 0.02 0.02 0.02
0.02 0.02 0.02 0.03 0.03 0.03 0.03 0.03 0.03 0.03 0.03 0.03 0.03 0.03 0.03 0.03 0.03 0.03 0.03 0.03 0.02 0.03 0.03 0.03 0.03 0.03 0.03 0.04 0.04 0.04 0.05 0.05 0.06 0.06 0.06 0.05 0.05 0.04 0.04 0.03 0.03 0.02 0.02 0.02
0.02 0.02 0.02 0.02 0.02 0.02 0.02 0.02 0.03 0.02 0.02 0.03 0.03 0.03 0.03 0.03 0.03 0.03 0.03 0.02 0.02 0.02 0.03 0.03 0.03 0.02 0.03 0.03 0.03 0.03 0.03 0.03 0.04 0.04 0.04 0.05 0.04 0.04 0.03 0.03 0.03 0.02 0.02 0.02
0.02 0.02 0.01 0.01 0.02 0.02 0.02 0.02 0.02 0.02 0.02 0.02 0.02 0.02 0.03 0.03 0.03 0.03 0.03 0.03 0.03 0.02 0.02 0.02 0.02 0.02 0.02 0.02 0.02 0.02 0.02 0.02 0.02 0.02 0.02 0.03 0.03 0.03 0.03 0.03 0.03 0.02 0.02 0.02
0.01 0.01 0.01 0.01 0.02 0.02 0.02 0.02 0.02 0.02 0.02 0.02 0.02 0.02 0.02 0.02 0.03 0.03 0.02 0.03 0.03 0.02 0.02 0.02 0.02 0.02 0.01 0.01 0.01 0.01 0.01 0.02 0.01 0.01 0.01 0.02 0.02 0.02 0.02 0.02 0.02 0.02 0.02 0.01
0.01 0.01 0.01 0.01 0.01 0.01 0.01 0.01 0.02 0.02 0.02 0.02 0.02 0.02 0.02 0.02 0.02 0.02 0.02 0.02 0.02 0.02 0.02 0.01 0.02 0.01 0.01 0.01 0.01 0.01 0.01 0.01 0.01 0.01 0.01 0.01 0.01 0.01 0.01 0.01 0.01 0.01 0.01 0.01
0.01 0.01 0.01 0.01 0.01 0.01 0.01 0.01 0.01 0.01 0.01 0.02 0.02 0.02 0.02 0.02 0.02 0.02 0.03 0.03 0.02 0.02 0.02 0.02 0.02 0.02 0.01 0.01 0.01 0.01 0.01 0.01 0.01 0.01 0.01 0.01 0.01 0.01 0.01 0.02 0.02 0.02 0.02 0.02
0.01 0.01 0.01 0.01 0.01 0.01 0.01 0.01 0.01 0.01 0.02 0.02 0.02 0.02 0.02 0.02 0.02 0.02 0.02 0.02 0.02 0.02 0.02 0.02 0.02 0.02 0.01 0.01 0.01 0.00 0.00 0.01 0.01 0.01 0.01 0.01 0.01 0.01 0.01 0.02 0.02 0.02 0.02 0.02
0.01 0.01 0.01 0.01 0.01 0.01 0.01 0.01 0.01 0.01 0.01 0.02 0.02 0.02 0.02 0.02 0.02 0.02 0.02 0.02 0.02 0.02 0.02 0.02 0.02 0.02 0.01 0.01 0.01 0.01 0.00 0.01 0.01 0.01 0.01 0.01 0.01 0.01 0.01 0.01 0.01 0.01 0.01 0.01
0.01 0.01 0.01 0.01 0.01 0.01 0.01 0.01 0.01 0.01 0.01 0.01 0.01 0.01 0.01 0.01 0.01 0.01 0.01 0.01 0.01 0.01 0.01 0.01 0.01 0.01 0.01 0.01 0.01 0.01 0.00 0.00 0.00 0.00 0.00 0.00 0.00 0.01 0.01 0.01 0.01 0.01 0.01 0.01
0.01 0.01 0.01 0.01 0.01 0.01 0.01 0.00 0.01 0.01 0.01 0.01 0.01 0.01 0.01 0.01 0.01 0.01 0.01 0.01 0.01 0.01 0.01 0.01 0.01 0.01 0.01 0.01 0.01 0.00 0.00 0.00 0.00 0.00 0.00 0.00 0.00 0.01 0.01 0.01 0.01 0.01 0.01 0.01
MSLP
1037.12 1036.85 1036.47 1036.02 1035.51 1034.97 1034.44 1033.93 1033.45 1033.01 1032.63 1032.28 1031.98 1031.73 1031.51 1031.32 1031.16 1031.01 1030.87 1030.71 1030.51 1030.27 1029.95 1029.56 1029.09 1028.54 1027.93 1027.28 1026.61 1025.94 1025.28 1024.65 1024.05 1023.48 1022.92 1022.37 1021.80 1021.20 1020.57 1019.88 1019.15 1018.35 1017.50 1016.59
1037.73 1037.36 1036.84 1036.21 1035.50 1034.76 1034.05 1033.40 1032.84 1032.38 1032.02 1031.76 1031.58 1031.46 1031.36 1031.28 1031.19 1031.07 1030.91 1030.70 1030.44 1030.12 1029.74 1029.31 1028.82 1028.28 1027.70 1027.09 1026.46 1025.83 1025.20 1024.58 1023.97 1023.38 1022.80 1022.22 1021.64 1021.03 1020.39 1019.71 1018.97 1018.17 1017.30 1016.37
1038.30 1037.82 1037.15 1036.34 1035.45 1034.54 1033.68 1032.91 1032.29 1031.82 1031.50 1031.32 1031.24 1031.22 1031.22 1031.20 1031.14 1031.01 1030.80 1030.52 1030.18 1029.78 1029.33 1028.86 1028.36 1027.84 1027.30 1026.74 1026.17 1025.59 1024.99 1024.39 1023.79 1023.19 1022.59 1022.00 1021.40 1020.79 1020.15 1019.47 1018.73 1017.93 1017.05 1016.09
1038.74 1038.15 1037.35 1036.40 1035.36 1034.32 1033.35 1032.51 1031.85 1031.39 1031.11 1030.98 1030.97 1031.02 1031.06 1031.06 1030.98 1030.80 1030.52 1030.16 1029.72 1029.24 1028.74 1028.23 1027.73 1027.24 1026.75 1026.25 1025.74 1025.21 1024.65 1024.07 1023.47 1022.86 1022.25 1021.65 1021.04 1020.43 1019.80 1019.13 1018.40 1017.60 1016.71 1015.73
1038.96 1038.27 1037.37 1036.31 1035.18 1034.07 1033.04 1032.17 1031.51 1031.05 1030.80 1030.72 1030.74 1030.80 1030.85 1030.82 1030.69 1030.44 1030.07 1029.61 1029.09 1028.55 1028.00 1027.48 1026.99 1026.54 1026.10 1025.65 1025.19 1024.70 1024.17 1023.60 1023.00 1022.38 1021.76 1021.15 1020.54 1019.94 1019.32 1018.66 1017.95 1017.16 1016.27 1015.28
1038.84 1038.07 1037.10 1036.00 1034.83 1033.70 1032.67 1031.82 1031.17 1030.74 1030.51 1030.44 1030.47 1030.52 1030.53 1030.45 1030.25 1029.92 1029.48 1028.94 1028.36 1027.77 1027.20 1026.68 1026.22 1025.79 1025.39 1024.99 1024.57 1024.09 1023.57 1023.00 1022.38 1021.75 1021.11 1020.49 1019.88 1019.29 1018.69 1018.06 1017.37 1016.60 1015.72 1014.73
1038.31 1037.48 1036.49 1035.38 1034.24 1033.15 1032.17 1031.37 1030.76 1030.37 1030.16 1030.10 1030.10 1030.12 1030.08 1029.95 1029.68 1029.29 1028.78 1028.20 1027.58 1026.98 1026.42 1025.91 1025.47 1025.07 1024.70 1024.32 1023.90 1023.42 1022.88 1022.28 1021.64 1020.98 1020.32 1019.68 1019.07 1018.49 1017.91 1017.31 1016.66 1015.92 1015.07 1014.10
1037.34 1036.49 1035.51 1034.45 1033.39 1032.38 1031.49 1030.77 1030.24 1029.89 1029.71 1029.64 1029.63 1029.61 1029.52 1029.33 1029.02 1028.59 1028.06 1027.47 1026.85 1026.26 1025.71 1025.23 1024.81 1024.43 1024.06 1023.66 1023.22 1022.71 1022.13 1021.49 1020.80 1020.10 1019.41 1018.76 1018.15 1017.58 1017.02 1016.46 1015.85 1015.15 1014.34 1013.42
1035.99 1035.15 1034.22 1033.25 1032.30 1031.42 1030.65 1030.04 1029.59 1029.30 1029.15 1029.08 1029.06 1029.01 1028.89 1028.68 1028.35 1027.91 1027.38 1026.81 1026.22 1025.66 1025.14 1024.67 1024.26 1023.87 1023.48 1023.05 1022.56 1021.99 1021.35 1020.65 1019.91 1019.16 1018.44 1017.77 1017.16 1016.59 1016.06 1015.53 1014.95 1014.31 1013.55 1012.68
1034.36 1033.57 1032.73 1031.89 1031.08 1030.35 1029.72 1029.23 1028.88 1028.65 1028.53 1028.48 1028.45 1028.39 1028.26 1028.04 1027.71 1027.29 1026.80 1026.26 1025.72 1025.19 1024.69 1024.24 1023.81 1023.39 1022.95 1022.45 1021.89 1021.26 1020.54 1019.77 1018.98 1018.19 1017.44 1016.75 1016.13 1015.57 1015.05 1014.54 1014.00 1013.40 1012.70 1011.89
1032.61 1031.90 1031.19 1030.50 1029.86 1029.29 1028.81 1028.44 1028.18 1028.02 1027.93 1027.90 1027.86 1027.80 1027.67 1027.47 1027.17 1026.78 1026.33 1025.84 1025.33 1024.83 1024.34 1023.87 1023.41 1022.93 1022.42 1021.85 1021.20 1020.48 1019.70 1018.87 1018.03 1017.20 1016.42 1015.72 1015.08 1014.52 1014.01 1013.51 1012.99 1012.42 1011.77 1011.03
1030.90 1030.31 1029.75 1029.22 1028.74 1028.34 1028.00 1027.74 1027.57 1027.46 1027.41 1027.39 1027.36 1027.29 1027.18 1026.98 1026.71 1026.36 1025.95 1025.50 1025.01 1024.51 1024.01 1023.51 1022.98 1022.43 1021.83 1021.17 1020.44 1019.64 1018.79 1017.91 1017.03 1016.18 1015.38 1014.66 1014.02 1013.44 1012.92 1012.41 1011.90 1011.35 1010.73 1010.05
1029.35 1028.89 1028.49 1028.13 1027.82 1027.56 1027.35 1027.19 1027.08 1027.02 1026.98 1026.96 1026.92 1026.86 1026.74 1026.56 1026.31 1025.99 1025.60 1025.16 1024.68 1024.17 1023.63 1023.06 1022.46 1021.82 1021.13 1020.37 1019.56 1018.70 1017.80 1016.88 1015.98 1015.11 1014.30 1013.56 1012.90 1012.30 1011.76 1011.23 1010.71 1010.16 1009.57 1008.94
1028.01 1027.70 1027.45 1027.25 1027.08 1026.95 1026.84 1026.76 1026.70 1026.65 1026.62 1026.58 1026.53 1026.45 1026.32 1026.14 1025.90 1025.58 1025.20 1024.76 1024.26 1023.71 1023.11 1022.48 1021.79 1021.06 1020.28 1019.44 1018.56 1017.64 1016.70 1015.76 1014.85 1013.97 1013.15 1012.40 1011.71 1011.08 1010.50 1009.95 1009.40 1008.85 1008.28 1007.69
1026.87 1026.70 1026.60 1026.54 1026.50 1026.47 1026.43 1026.40 1026.35 1026.31 1026.25 1026.19 1026.11 1026.00 1025.85 1025.65 1025.40 1025.08 1024.69 1024.23 1023.70 1023.10 1022.45 1021.74 1020.97 1020.16 1019.29 1018.39 1017.45 1016.49 1015.53 1014.58 1013.65 1012.76 1011.93 1011.16 1010.45 1009.78 1009.16 1008.57 1008.00 1007.44 1006.89 1006.36
1025.90 1025.86 1025.88 1025.93 1025.99 1026.03 1026.04 1026.02 1025.98 1025.91 1025.82 1025.71 1025.59 1025.44 1025.26 1025.04 1024.76 1024.43 1024.02 1023.54 1022.98 1022.34 1021.64 1020.87 1020.04 1019.16 1018.24 1017.28 1016.30 1015.32 1014.33 1013.37 1012.43 1011.54 1010.69 1009.89 1009.14 1008.45 1007.79 1007.17 1006.58 1006.03 1005.51 1005.03
1025.03 1025.09 1025.21 1025.35 1025.48 1025.56 1025.59 1025.58 1025.51 1025.40 1025.26 1025.11 1024.93 1024.74 1024.52 1024.27 1023.98 1023.63 1023.21 1022.71 1022.13 1021.48 1020.74 1019.93 1019.07 1018.15 1017.19 1016.20 1015.20 1014.20 1013.20 1012.23 1011.28 1010.36 1009.49 1008.67 1007.89 1007.16 1006.47 1005.84 1005.25 1004.72 1004.25 1003.85
1024.22 1024.37 1024.56 1024.76 1024.92 1025.03 1025.06 1025.02 1024.92 1024.77 1024.58 1024.36 1024.14 1023.90 1023.65 1023.38 1023.07 1022.71 1022.30 1021.80 1021.22 1020.57 1019.83 1019.02 1018.14 1017.21 1016.25 1015.25 1014.24 1013.23 1012.23 1011.24 1010.28 1009.34 1008.45 1007.60 1006.79 1006.04 1005.35 1004.71 1004.15 1003.67 1003.27 1002.96
1023.46 1023.67 1023.91 1024.15 1024.33 1024.43 1024.45 1024.38 1024.24 1024.03 1023.79 1023.53 1023.26 1022.99 1022.71 1022.42 1022.11 1021.76 1021.35 1020.88 1020.33 1019.69 1018.98 1018.20 1017.35 1016.44 1015.49 1014.51 1013.51 1012.51 1011.50 1010.51 1009.53 1008.59 1007.67 1006.80 1005.99 1005.23 1004.55 1003.95 1003.44 1003.02 1002.72 1002.52
1022.75 1023.01 1023.29 1023.54 1023.72 1023.81 1023.81 1023.70 1023.52 1023.27 1022.99 1022.68 1022.38 1022.08 1021.78 1021.48 1021.18 1020.84 1020.46 1020.02 1019.51 1018.92 1018.26 1017.53 1016.73 1015.87 1014.97 1014.02 1013.05 1012.07 1011.08 1010.09 1009.12 1008.16 1007.25 1006.38 1005.57 1004.83 1004.18 1003.63 1003.19 1002.87 1002.67 1002.59
1022.13 1022.42 1022.72 1022.97 1023.15 1023.22 1023.19 1023.05 1022.84 1022.56 1022.24 1021.91 1021.58 1021.26 1020.95 1020.65 1020.35 1020.03 1019.67 1019.27 1018.81 1018.28 1017.68 1017.01 1016.28 1015.49 1014.65 1013.77 1012.85 1011.91 1010.96 1010.00 1009.04 1008.11 1007.21 1006.36 1005.58 1004.89 1004.30 1003.82 1003.46 1003.24 1003.15 1003.18
1021.59 1021.91 1022.21 1022.46 1022.62 1022.68 1022.62 1022.47 1022.23 1021.94 1021.61 1021.26 1020.92 1020.59 1020.28 1019.98 1019.69 1019.38 1019.04 1018.67 1018.25 1017.77 1017.23 1016.64 1015.98 1015.27 1014.51 1013.71 1012.87 1012.00 1011.10 1010.20 1009.29 1008.41 1007.55 1006.75 1006.03 1005.40 1004.88 1004.48 1004.21 1004.08 1004.09 1004.22
1021.13 1021.46 1021.76 1021.99 1022.14 1022.18 1022.11 1021.95 1021.72 1021.43 1021.11 1020.77 1020.44 1020.11 1019.80 1019.50 1019.20 1018.89 1018.56 1018.20 1017.81 1017.37 1016.88 1016.35 1015.77 1015.15 1014.48 1013.77 1013.03 1012.25 1011.45 1010.63 1009.81 1009.00 1008.22 1007.50 1006.85 1006.29 1005.85 1005.53 1005.35 1005.30 1005.38 1005.57
1020.71 1021.03 1021.31 1021.53 1021.65 1021.69 1021.62 1021.48 1021.27 1021.01 1020.73 1020.42 1020.11 1019.81 1019.50 1019.20 1018.88 1018.56 1018.22 1017.86 1017.46 1017.04 1016.59 1016.11 1015.61 1015.07 1014.50 1013.90 1013.27 1012.61 1011.93 1011.23 1010.51 1009.81 1009.13 1008.50 1007.94 1007.47 1007.10 1006.86 1006.74 1006.75 1006.88 1007.11
1020.27 1020.57 1020.82 1021.01 1021.12 1021.15 1021.12 1021.01 1020.85 1020.66 1020.43 1020.18 1019.91 1019.63 1019.34 1019.04 1018.71 1018.36 1017.99 1017.60 1017.20 1016.78 1016.34 1015.90 1015.46 1015.00 1014.53 1014.05 1013.55 1013.03 1012.49 1011.92 1011.34 1010.77 1010.20 1009.68 1009.21 1008.82 1008.52 1008.33 1008.26 1008.30 1008.45 1008.69
1019.78 1020.03 1020.24 1020.39 1020.50 1020.55 1020.55 1020.50 1020.42 1020.31 1020.16 1019.99 1019.79 1019.55 1019.28 1018.98 1018.63 1018.26 1017.85 1017.42 1016.99 1016.55 1016.13 1015.71 1015.32 1014.94 1014.58 1014.22 1013.86 1013.48 1013.09 1012.67 1012.24 1011.80 1011.36 1010.94 1010.56 1010.24 1009.99 1009.84 1009.78 1009.83 1009.97 1010.20
1019.23 1019.42 1019.57 1019.70 1019.80 1019.87 1019.92 1019.96 1019.97 1019.96 1019.92 1019.83 1019.71 1019.52 1019.28 1018.98 1018.62 1018.21 1017.77 1017.30 1016.83 1016.38 1015.95 1015.57 1015.23 1014.93 1014.66 1014.42 1014.20 1013.97 1013.73 1013.47 1013.18 1012.87 1012.54 1012.21 1011.91 1011.64 1011.43 1011.29 1011.23 1011.26 1011.38 1011.57
Thickness
5325 5333 5334 5337 5342 5349 5353 5358 5361 5370 5379 5384 5390 5397 5404 5411 5418 5426 5431 5436 5441 5446 5451 5457 5463 5469 5475 5481 5487 5492 5497 5501 5505 5509 5512 5515 5516 5518 5519 5520 5521 5521 5522 5522
5317 5329 5331 5334 5336 5340 5346 5351 5355 5364 5368 5374 5380 5387 5394 5399 5407 5414 5419 5424 5429 5434 5439 5444 5451 5457 5462 5468 5474 5480 5486 5489 5493 5497 5500 5503 5505 5507 5508 5509 5510 5510 5511 5511
5307 5319 5325 5320 5324 5329 5335 5338 5346 5351 5355 5363 5369 5376 5380 5386 5394 5401 5406 5412 5417 5422 5427 5432 5438 5444 5450 5455 5461 5467 5473 5477 5481 5484 5487 5490 5492 5494 5496 5497 5498 5499 5499 5499
5296 5302 5297 5311 5317 5322 5328 5331 5336 5341 5346 5351 5357 5365 5371 5375 5381 5387 5394 5399 5405 5410 5415 5420 5426 5432 5438 5444 5449 5455 5460 5464 5468 5471 5474 5476 5479 5481 5483 5484 5485 5486 5487 5488
5284 5285 5296 5307 5309 5310 5316 5322 5322 5327 5335 5341 5349 5359 5362 5366 5370 5375 5381 5388 5393 5399 5404 5409 5414 5420 5426 5431 5436 5441 5446 5451 5455 5458 5461 5463 5466 5468 5470 5471 5472 5473 5475 5476
5271 5278 5282 5293 5302 5309 5314 5313 5315 5317 5323 5330 5339 5346 5351 5355 5359 5365 5372 5378 5384 5388 5392 5397 5402 5408 5414 5418 5422 5428 5432 5437 5442 5446 5449 5451 5453 5455 5457 5459 5460 5461 5462 5463
5260 5264 5277 5284 5293 5305 5299 5298 5306 5309 5314 5320 5326 5331 5338 5343 5349 5356 5362 5368 5373 5377 5381 5386 5391 5396 5401 5406 5410 5415 5420 5424 5428 5432 5436 5438 5440 5442 5444 5446 5447 5448 5449 5451
5256 5259 5269 5278 5285 5284 5284 5291 5296 5302 5306 5311 5316 5322 5329 5334 5340 5346 5352 5357 5362 5366 5370 5374 5379 5385 5390 5394 5398 5403 5408 5412 5416 5419 5423 5426 5428 5429 5431 5433 5434 5435 5436 5437
5256 5261 5265 5268 5270 5275 5279 5283 5288 5293 5298 5302 5307 5313 5319 5324 5330 5335 5341 5345 5350 5354 5358 5363 5368 5373 5377 5382 5387 5392 5396 5400 5404 5407 5410 5412 5415 5416 5418 5420 5421 5422 5423 5425
5253 5258 5260 5263 5266 5270 5274 5277 5282 5287 5291 5295 5299 5304 5309 5315 5320 5325 5330 5335 5339 5343 5347 5351 5355 5360 5365 5370 5376 5380 5384 5388 5391 5394 5397 5399 5401 5404 5406 5408 5409 5410 5412 5413
5246 5251 5255 5260 5262 5265 5269 5273 5277 5281 5284 5288 5292 5296 5301 5306 5311 5315 5321 5325 5329 5332 5336 5339 5344 5349 5354 5359 5365 5369 5372 5376 5379 5382 5384 5386 5388 5390 5393 5396 5398 5400 5401 5402
5244 5247 5247 5252 5257 5259 5262 5266 5270 5274 5278 5281 5285 5289 5294 5298 5302 5306 5311 5315 5319 5323 5326 5329 5333 5338 5342 5347 5352 5357 5361 5364 5367 5369 5372 5375 5376 5377 5380 5383 5385 5387 5389 5391
5242 5245 5245 5248 5251 5254 5256 5260 5263 5266 5270 5273 5277 5281 5286 5290 5294 5298 5302 5306 5309 5313 5316 5320 5323 5327 5331 5336 5341 5345 5349 5352 5356 5358 5361 5363 5365 5367 5368 5369 5372 5374 5377 5379
5240 5241 5243 5244 5245 5249 5251 5254 5257 5260 5263 5267 5270 5274 5278 5282 5286 5290 5293 5296 5300 5303 5306 5310 5313 5317 5321 5325 5330 5334 5337 5341 5345 5347 5350 5352 5354 5356 5357 5359 5360 5360 5363 5366
5237 5237 5238 5240 5242 5244 5246 5249 5251 5253 5257 5260 5263 5266 5270 5273 5276 5280 5284 5287 5291 5293 5297 5300 5304 5307 5311 5315 5319 5323 5326 5330 5333 5336 5338 5341 5342 5344 5345 5347 5348 5349 5350 5353
5233 5233 5234 5235 5237 5239 5240 5242 5244 5247 5250 5253 5256 5259 5262 5264 5268 5272 5275 5278 5281 5283 5287 5290 5294 5298 5301 5305 5309 5312 5315 5319 5322 5325 5327 5328 5330 5332 5333 5335 5336 5337 5338 5340
5228 5229 5230 5230 5232 5233 5234 5235 5237 5240 5243 5245 5248 5251 5254 5258 5261 5264 5266 5269 5271 5274 5277 5280 5284 5288 5291 5295 5298 5301 5304 5307 5310 5313 5315 5316 5318 5319 5321 5322 5324 5325 5326 5328
5225 5226 5226 5226 5227 5228 5229 5230 5232 5234 5236 5239 5242 5245 5247 5249 5252 5255 5257 5260 5262 5265 5268 5271 5275 5278 5281 5285 5288 5291 5294 5296 5299 5301 5302 5304 5306 5307 5308 5310 5311 5312 5313 5316
5221 5221 5221 5222 5222 5223 5223 5224 5226 5228 5231 5233 5235 5237 5239 5241 5243 5246 5248 5250 5253 5256 5259 5262 5266 5269 5272 5275 5279 5281 5283 5285 5287 5288 5290 5293 5294 5295 5296 5297 5298 5300 5301 5303
5217 5217 5218 5218 5218 5218 5218 5220 5221 5222 5224 5226 5228 5230 5231 5233 5235 5238 5240 5241 5244 5247 5250 5254 5257 5260 5263 5266 5269 5271 5273 5274 5276 5277 5278 5280 5281 5283 5284 5285 5286 5288 5290 5291
5213 5213 5213 5213 5213 5213 5213 5214 5214 5216 5218 5220 5221 5223 5224 5226 5227 5229 5232 5234 5237 5240 5243 5246 5248 5251 5254 5257 5260 5261 5263 5264 5266 5266 5268 5269 5270 5271 5272 5273 5275 5276 5278 5279
5208 5208 5208 5207 5207 5207 5208 5208 5209 5210 5211 5213 5214 5216 5217 5219 5221 5223 5224 5226 5230 5233 5235 5237 5240 5243 5246 5248 5250 5252 5253 5254 5255 5256 5257 5258 5259 5260 5260 5262 5263 5265 5267 5268
5204 5203 5203 5202 5202 5202 5202 5202 5203 5204 5205 5206 5208 5210 5211 5213 5214 5216 5218 5220 5223 5226 5228 5230 5233 5236 5238 5239 5240 5242 5243 5244 5244 5245 5246 5247 5248 5249 5250 5251 5253 5254 5256 5257
5200 5200 5199 5198 5197 5196 5196 5197 5197 5198 5199 5200 5202 5204 5205 5207 5208 5210 5211 5214 5217 5220 5221 5223 5226 5229 5230 5230 5231 5232 5233 5234 5235 5235 5236 5237 5238 5239 5240 5241 5242 5244 5245 5247
5197 5195 5194 5193 5192 5193 5193 5193 5193 5193 5193 5195 5196 5198 5200 5201 5202 5204 5205 5207 5210 5213 5214 5216 5218 5220 5220 5221 5222 5223 5224 5225 5225 5226 5227 5228 5228 5229 5230 5231 5233 5234 5236 5238
5193 5191 5190 5190 5189 5189 5189 5188 5188 5188 5189 5190 5192 5193 5194 5195 5196 5198 5199 5201 5203 5205 5206 5208 5209 5211 5212 5213 5213 5214 5215 5216 5216 5217 5218 5218 5219 5220 5221 5223 5224 5226 5227 5229
5189 5187 5186 5185 5185 5185 5184 5183 5183 5184 5184 5185 5186 5188 5189 5190 5191 5192 5193 5194 5195 5197 5198 5200 5201 5202 5203 5204 5205 5206 5207 5208 5208 5209 5209 5210 5211 5212 5213 5214 5216 5218 5219 5221